1373241632107,145.075
1373241692107,145.121
1373241752107,144.820
1373241812107,145.017
1373241872107,145.086
1373241932107,145.051
1373241992107,145.093
1373242052107,144.888
1373242112107,145.025
1373242172107,144.925
1373242232107,145.115
1373242292107,144.995
1373242352107,144.920
1373242412107,145.205
1373242472107,144.972
1373242532107,145.130
1373242592107,144.820
1373242652107,144.997
1373242712107,145.052
1373242772107,145.051
1373242832107,145.001
1373242892107,145.269
1373242952107,145.103
1373243012107,145.136
1373243072107,144.929
1373243132107,144.892
1373243192107,144.928
1373243252107,145.115
1373243312107,145.234
1373243372107,145.128
1373243432107,145.216
1373243492107,145.210
1373243552107,145.514
1373243612107,145.227
1373243672107,145.234
1373243732107,145.284
1373243792107,145.275
1373243852107,144.872
1373243912107,145.203
1373243972107,145.655
1373244032107,145.475
1373244092107,145.687
1373244152107,145.568
1373244212107,145.455
1373244272107,145.301
1373244332107,145.524
1373244392107,145.368
1373244452107,145.367
1373244512107,145.497
1373244572107,145.364
1373244632107,145.386
1373244692107,145.439
1373244752107,145.518
1373244812107,145.643
1373244872107,145.610
1373244932107,145.448
1373244992107,145.811
1373245052107,145.721
1373245112107,145.498
1373245172107,145.509
1373245232117,145.390
1373245292117,145.466
1373245352117,145.424
1373245412117,145.477
1373245472117,145.206
1373245532117,145.160
1373245592117,145.280
1373245652117,145.260
1373245712117,145.326
1373245772117,145.369
1373245832117,145.425
1373245892117,145.360
1373246432117,145.115
1373246492117,146.481
1373246552117,149.691
1373246612117,147.360
1373246672117,146.895
1373246732117,146.674
1373246792117,146.176
1373246852117,146.200
1373246912117,145.884
1373246972117,145.569
1373247032117,145.896
1373247092117,145.676
1373247152117,145.647
1373247212117,145.566
1373247272117,145.624
1373247332117,145.830
1373247392117,145.374
1373247452117,145.285
1373247512117,145.754
1373247572117,145.258
1373247632117,145.320
1373247692117,145.651
1373247752117,145.673
1373247812117,145.539
1373247872117,145.251
1373247932117,145.627
1373247992117,145.194
1373248052117,145.383
1373248112117,145.540
1373248172117,145.405
1373248232117,145.581
1373248292117,145.588
1373248352117,145.503
1373248412117,145.610
1373248472117,145.154
1373248532117,145.699
1373248592117,145.477
1373248652117,145.503
1373248712117,145.042
1373248772117,145.117
1373248832126,145.155
1373248892126,145.192
1373248952126,145.300
1373249012126,145.170
1373249072126,145.130
1373249132126,145.544
1373249192126,145.432
1373249252126,145.356
1373249312126,145.129
1373249372126,145.163
1373249432126,145.305
1373249492126,145.246
1373249552126,145.245
1373249612126,145.405
1373249672126,145.083
1373249732126,145.376
1373249792126,145.247
1373249852126,145.111
1373249912126,145.165
1373249972126,145.273
1373250032126,145.916
1373250092126,145.427
1373250152126,145.297
1373250212126,145.447
1373250272126,145.309
1373250332126,145.678
1373250392126,145.576
1373250452126,145.096
1373250512126,145.478
1373250572126,145.298
1373250632126,145.615
1373250692126,145.181
1373250752126,145.496
1373250812126,145.385
1373250872126,145.663
1373250932126,145.630
1373250992126,145.370
1373251052126,145.355
1373251112126,145.654
1373251172126,145.362
1373251232126,145.564
1373251292126,145.535
1373251352126,145.549
1373251412126,145.389
1373251472126,145.482
1373251532126,145.405
1373251592126,145.537
1373251652126,145.590
1373251712126,145.518
1373251772126,145.767
1373251832126,145.543
1373251892126,145.284
1373251952126,145.588
1373252012126,145.936
1373252072126,145.659
1373252132126,145.792
1373252192126,145.645
1373252252126,145.634
1373252312126,145.823
1373252372126,145.847
1373252432136,145.566
1373252492136,145.304
1373252552136,145.336
1373252612136,145.428
1373252672136,145.857
1373252732136,145.471
1373252792136,145.456
1373252852136,145.637
1373252912136,145.608
1373252972136,145.771
1373253032136,145.658
1373253092136,145.711
1373253152136,145.607
1373253212136,145.529
1373253272136,145.789
1373253332136,145.665
1373253392136,145.438
1373253452136,145.543
1373253512136,145.737
1373253572136,145.515
1373253632136,145.529
1373253692136,145.682
1373253752136,145.323
1373253812136,145.566
1373253872136,145.661
1373253932136,145.454
1373253992136,145.399
1373254052136,145.614
1373254112136,145.543
1373254172136,145.684
1373254232136,145.694
1373254292136,145.822
1373254352136,145.735
1373254412136,145.689
1373254472136,145.711
1373254532136,146.078
1373254592136,145.723
1373254652136,145.667
1373254712136,145.568
1373254772136,145.541
1373254832136,145.844
1373254892136,145.513
1373254952136,145.619
1373255012136,145.843
1373255072136,145.825
1373255132136,146.143
1373255192136,145.652
1373255252136,145.684
1373255312136,145.820
1373255372136,145.659
1373255432136,145.827
1373255492136,145.756
1373255552136,145.809
1373255612136,145.596
1373255672136,145.899
1373255732136,146.079
1373255792136,145.643
1373255852136,145.611
1373255912136,145.910
1373255972136,145.883
1373256032145,145.631
1373256092145,145.822
1373256152145,145.928
1373256212145,145.913
1373256272145,146.213
1373256332145,146.188
1373256392145,146.007
1373256452145,146.313
1373256512145,146.186
1373256572145,146.132
1373256632145,145.978
1373256692145,145.899
1373256752145,146.033
1373256812145,145.946
1373256872145,145.693
1373256932145,146.172
1373256992145,146.403
1373257052145,145.862
1373257112145,145.917
1373257172145,146.168
1373257232145,146.161
1373257292145,145.887
1373257352145,146.240
1373257412145,145.643
1373257472145,145.945
1373257532145,145.461
1373257592145,145.695
1373257652145,146.108
1373257712145,145.833
1373257772145,145.676
1373257832145,145.953
1373257892145,145.948
1373257952145,146.257
1373258012145,145.940
1373258072145,145.857
1373258132145,145.758
1373258192145,145.940
1373258252145,146.841
1373258312145,145.821
1373258372145,146.067
1373258432145,146.063
1373258492145,145.895
1373258552145,145.735
1373258612145,146.012
1373258672145,146.063
1373258732145,146.216
1373258792145,146.152
1373258852145,146.264
1373258912145,145.854
1373258972145,146.101
1373259032145,146.484
1373259092145,146.287
1373259152145,146.242
1373259212145,146.002
1373259272145,146.262
1373259332145,146.309
1373259392145,146.249
1373259452145,146.195
1373259512145,146.083
1373259572145,145.944
1373259632154,146.010
1373259692154,146.219
1373259752154,146.227
1373259812154,146.048
1373259872154,146.161
1373259932154,145.739
1373259992154,145.866
1373260052154,146.069
1373260112154,145.832
1373260172154,146.041
1373260232154,145.818
1373260292154,145.973
1373260352154,146.340
1373260412154,146.012
1373260472154,146.038
1373260532154,146.325
1373260592154,146.264
1373260652154,146.427
1373260712154,146.229
1373260772154,146.341
1373260832154,146.141
1373260892154,146.219
1373260952154,146.472
1373261012154,146.669
1373261072154,146.455
1373261132154,146.564
1373261192154,146.640
1373261252154,146.308
1373261312154,146.612
1373261372154,146.472
1373261432154,146.210
1373261492154,146.283
1373261552154,146.159
1373261612154,146.383
1373261672154,146.522
1373261732154,146.635
1373261792154,146.623
1373261852154,146.220
1373261912154,146.335
1373261972154,146.308
1373262032154,146.152
1373262092154,146.365
1373262152154,146.245
1373262212154,146.317
1373262272154,146.100
1373262332154,146.283
1373262392154,146.183
1373262452154,146.451
1373262512154,146.356
1373262572154,146.477
1373262632154,146.740
1373262692154,146.481
1373262752154,146.543
1373262812154,146.362
1373262872154,146.716
1373262932154,146.488
1373262992154,146.534
1373263052154,146.545
1373263112154,146.306
1373263172154,146.259
1373263232163,146.573
1373263292163,146.139
1373263352163,146.541
1373263412163,146.489
1373263472163,146.183
1373263532163,146.598
1373263592163,146.554
1373263652163,146.612
1373263712163,146.641
1373263772163,146.467
1373263832163,146.357
1373263892163,146.596
1373263952163,146.301
1373264012163,146.505
1373264072163,146.160
1373264132163,146.328
1373264192163,146.147
1373264252163,146.192
1373264312163,146.537
1373264372163,146.378
1373264432163,146.280
1373264492163,146.040
1373264552163,146.306
1373264612163,145.947
1373264672163,146.246
1373264732163,146.037
1373264792163,146.086
1373264852163,146.121
1373264912163,146.034
1373264972163,146.414
1373265032163,146.406
1373265092163,146.270
1373265152163,146.187
1373265212163,146.297
1373265272163,146.108
1373265332163,146.248
1373265392163,146.045
1373265452163,146.190
1373265512163,146.135
1373265572163,146.029
1373265632163,146.102
1373265692163,146.351
1373265752163,146.239
1373265812163,146.232
1373265872163,145.998
1373265932163,146.096
1373265992163,145.898
1373266052163,146.101
1373266112163,146.126
1373266172163,146.092
1373266232163,145.815
1373266292163,145.696
1373266352163,145.743
1373266412163,145.899
1373266472163,145.793
1373266532163,145.519
1373266592163,145.946
1373266652163,145.365
1373266712163,145.649
1373266772163,145.699
1373266832172,145.492
1373266892172,145.591
1373266952172,145.818
1373267012172,145.216
1373267072172,145.492
1373267132172,145.450
1373267192172,145.337
1373267252172,145.586
1373267312172,145.392
1373267372172,145.489
1373267432172,145.269
1373267492172,145.455
1373267552172,145.202
1373267612172,145.387
1373267672172,145.365
1373267732172,145.087
1373267792172,145.469
1373267852172,145.408
1373267912172,145.559
1373267972172,145.613
1373268032172,145.504
1373268092172,145.380
1373268152172,145.239
1373268212172,145.715
1373268272172,145.261
1373268332172,145.366
1373268392172,145.652
1373268452172,145.533
1373268512172,145.587
1373268572172,145.159
1373268632172,145.262
1373268692172,145.463
1373268752172,145.420
1373268812172,145.334
1373268872172,145.496
1373268932172,145.180
1373268992172,145.574
1373269052172,145.358
1373269112172,145.297
1373269172172,145.510
1373269232172,145.493
1373269292172,145.226
1373269352172,145.361
1373269412172,145.191
1373269472172,145.419
1373269532172,145.475
1373269592172,145.330
1373269652172,144.860
1373269712172,145.161
1373269772172,145.190
1373269832172,144.929
1373269892172,144.969
1373269952172,144.874
1373270012172,144.730
1373270072172,144.673
1373270132172,144.938
1373270192172,144.936
1373270252172,144.957
1373270312172,145.048
1373270372172,145.031
1373270432181,145.029
1373270492181,144.966
1373270552181,145.351
1373270612181,145.033
1373270672181,145.094
1373270732181,145.246
1373270792181,145.122
1373270852181,145.036
1373270912181,145.113
1373270972181,145.018
1373271032181,144.866
1373271092181,145.277
1373271152181,144.862
1373271212181,145.082
1373271272181,145.460
1373271332181,145.049
1373271392181,145.286
1373271452181,144.994
1373271512181,145.092
1373271572181,145.535
1373271632181,144.935
1373271692181,145.448
1373271752181,145.387
1373271812181,145.071
1373271872181,145.354
1373271932181,145.189
1373271992181,145.279
1373272052181,145.514
1373272112181,145.541
1373272172181,145.066
1373272232181,144.826
1373272292181,145.091
1373272352181,144.922
1373272412181,144.872
1373272472181,145.083
1373272532181,144.938
1373272592181,145.072
1373272652181,145.112
1373272712181,145.238
1373272772181,145.103
1373272832181,144.778
1373272892181,144.949
1373272952181,145.148
1373273012181,145.116
1373273072181,145.093
1373273132181,144.897
1373273192181,145.294
1373273252181,144.825
1373273312181,144.741
1373273372181,145.195
1373273432181,145.149
1373273492181,145.156
1373273552181,144.935
1373273612181,144.918
1373273672181,145.488
1373273732181,145.151
1373273792181,145.000
1373273852181,145.023
1373273912181,144.912
1373273972181,145.020
1373274032190,145.084
1373274092190,144.770
1373274152190,144.978
1373274212190,144.962
1373274272190,144.620
1373274332190,145.074
1373274392190,145.311
1373274452190,144.776
1373274512190,145.034
1373274572190,145.212
1373274632190,144.753
1373274692190,144.644
1373274752190,144.719
1373274812190,144.828
1373274872190,144.776
1373274932190,144.730
1373274992190,144.367
1373275052190,144.789
1373275112190,144.903
1373275172190,144.487
1373275232190,144.777
1373275292190,144.425
1373275352190,144.711
1373275412190,144.850
1373275472190,144.530
1373275532190,144.567
1373275592190,144.473
1373275652190,144.476
1373275712190,144.531
1373275772190,144.595
1373275832190,144.361
1373275892190,144.586
1373275952190,144.603
1373276012190,144.293
1373276072190,144.820
1373276132190,144.410
1373276192190,144.277
1373276252190,144.531
1373276312190,144.367
1373276372190,144.493
1373276432190,144.100
1373276492190,144.434
1373276552190,144.020
1373276612190,144.258
1373276672190,144.368
1373276732190,143.926
1373276792190,144.172
1373276852190,144.310
1373276912190,144.190
1373276972190,144.316
1373277032190,144.114
1373277092190,144.374
1373277152190,144.175
1373277212190,144.086
1373277272190,144.109
1373277332190,144.680
1373277392190,144.321
1373277452190,144.461
1373277512190,144.403
1373277572190,144.374
1373277632199,144.369
1373277692199,144.328
1373277752199,144.492
1373277812199,143.987
1373277872199,144.489
1373277932199,144.145
1373277992199,144.018
1373278052199,144.126
1373278112199,144.409
1373278172199,144.478
1373278232199,144.041
1373278292199,144.356
1373278352199,143.972
1373278412199,144.201
1373278472199,144.260
1373278532199,144.115
1373278592199,144.450
1373278652199,144.158
1373278712199,144.211
1373278772199,144.214
1373278832199,144.124
1373278892199,144.343
1373278952199,144.341
1373279012199,144.143
1373279072199,144.225
1373279132199,143.865
1373279192199,144.152
1373279252199,144.252
1373279312199,144.393
1373279372199,144.231
1373279432199,144.153
1373279492199,144.066
1373279552199,144.192
1373279612199,144.342
1373279672199,144.509
1373279732199,144.183
1373279792199,144.069
1373279852199,144.189
1373279912199,144.248
1373279972199,144.311
1373280032199,144.510
1373280092199,144.020
1373280152199,144.598
1373280212199,144.405
1373280272199,144.366
1373280332199,143.959
1373280392199,144.135
1373280452199,144.566
1373280512199,144.049
1373280572199,143.936
1373280632199,144.188
1373280692199,144.298
1373280752199,144.213
1373280812199,144.064
1373280872199,144.420
1373280932199,144.207
1373280992199,144.467
1373281052199,144.544
1373281112199,144.143
1373281172199,144.531
1373281232208,144.321
1373281292208,144.333
1373281352208,144.391
1373281412208,144.037
1373281472208,144.477
1373281532208,144.358
1373281592208,144.438
1373281652208,144.330
1373281712208,144.254
1373281772208,144.286
1373281832208,144.347
1373281892208,144.491
1373281952208,143.980
1373282012208,143.976
1373282072208,144.501
1373282132208,144.485
1373282192208,144.422
1373282252208,144.300
1373282312208,144.364
1373282372208,144.534
1373282432208,144.624
1373282492208,144.325
1373282552208,144.385
1373282612208,144.431
1373282672208,144.179
1373282732208,144.420
1373282792208,144.288
1373282852208,144.391
1373282912208,144.428
1373282972208,144.584
1373283032208,144.216
1373283092208,144.403
1373283152208,144.567
1373283212208,144.492
1373283272208,144.033
1373283332208,144.272
1373283392208,144.453
1373283452208,144.576
1373283512208,144.512
1373283572208,144.510
1373283632208,144.093
1373283692208,144.762
1373283752208,144.425
1373283812208,144.489
1373283872208,144.581
1373283932208,144.820
1373283992208,144.527
1373284052208,144.648
1373284112208,144.460
1373284172208,145.065
1373284232208,145.220
1373284292208,144.806
1373284352208,144.988
1373284412208,144.615
1373284472208,144.826
1373284532208,144.927
1373284592208,144.887
1373284652208,144.997
1373284712208,144.973
1373284772208,144.849
1373284832217,144.488
1373284892217,145.266
1373284952217,144.727
1373285012217,145.015
1373285072217,145.025
1373285132217,144.686
1373285192217,145.159
1373285252217,144.759
1373285312217,144.865
1373285372217,144.789
1373285432217,145.474
1373285492217,144.783
1373285552217,144.961
1373285612217,144.887
1373285672217,145.062
1373285732217,144.843
1373285792217,144.993
1373285852217,144.955
1373285912217,144.876
1373285972217,144.683
1373286032217,144.861
1373286092217,145.061
1373286152217,144.684
1373286212217,144.923
1373286272217,145.007
1373286332217,144.829
1373286392217,144.579
1373286452217,144.875
1373286512217,144.681
1373286572217,144.667
1373286632217,144.715
1373286692217,144.960
1373286752217,144.776
1373286812217,144.623
1373286872217,144.462
1373286932217,144.901
1373286992217,144.740
1373287052217,144.818
1373287112217,144.975
1373287172217,144.834
1373287232217,144.758
1373287292217,144.918
1373287352217,144.622
1373287412217,144.906
1373287472217,144.912
1373287532217,145.014
1373287592217,144.814
1373287652217,144.776
1373287712217,144.595
1373287772217,144.788
1373287832217,144.880
1373287892217,144.638
1373287952217,145.025
1373288012217,144.769
1373288072217,144.930
1373288132217,144.416
1373288192217,144.545
1373288252217,144.610
1373288312217,144.536
1373288372217,144.652
1373288432226,144.682
1373288492226,144.690
1373288552226,144.235
1373288612226,144.129
1373288672226,144.648
1373288732226,144.509
1373288792226,144.238
1373288852226,144.420
1373288912226,144.586
1373288972226,144.452
1373289032226,144.438
1373289092226,144.441
1373289152226,144.337
1373289212226,144.038
1373289272226,144.139
1373289332226,144.311
1373289392226,144.348
1373289452226,144.284
1373289512226,144.426
1373289572226,144.363
1373289632226,144.017
1373289692226,144.256
1373289752226,144.543
1373289812226,144.513
1373289872226,144.257
1373289932226,144.076
1373289992226,144.369
1373290052226,144.060
1373290112226,144.249
1373290172226,144.294
1373290232226,144.094
1373290292226,143.773
1373290352226,144.413
1373290412226,144.179
1373290472226,144.385
1373290532226,144.286
1373290592226,144.322
1373290652226,143.750
1373290712226,144.337
1373290772226,143.771
1373290832226,143.870
1373290892226,144.077
1373290952226,144.104
1373291012226,143.843
1373291072226,144.212
1373291132226,143.793
1373291192226,144.133
1373291252226,144.385
1373291312226,143.818
1373291372226,143.806
1373291432226,143.851
1373291492226,143.717
1373291552226,144.148
1373291612226,144.041
1373291672226,144.013
1373291732226,144.020
1373291792226,143.876
1373291852226,144.103
1373291912226,143.960
1373291972226,144.033
1373292032235,143.991
1373292092235,144.217
1373292152235,144.124
1373292212235,144.233
1373292272235,144.049
1373292332235,144.214
1373292392235,143.974
1373292452235,143.896
1373292512235,143.781
1373292572235,144.013
1373292632235,144.391
1373292692235,144.171
1373292752235,144.001
1373292812235,143.970
1373292872235,144.086
1373292932235,144.453
1373292992235,144.252
1373293052235,144.336
1373293112235,144.410
1373293172235,144.264
1373293232235,144.294
1373293292235,144.255
1373293352235,144.115
1373293412235,143.852
1373293472235,144.591
1373293532235,144.586
1373293592235,144.723
1373293652235,144.652
1373293712235,144.686
1373293772235,144.813
1373293832235,144.421
1373293892235,143.968
1373293952235,144.255
1373294012235,144.400
1373294072235,144.592
1373294132235,144.432
1373294192235,144.330
1373294252235,144.595
1373294312235,144.625
1373294372235,144.167
1373294432235,144.508
1373294492235,144.378
1373294552235,144.550
1373294612235,144.589
1373294672235,144.470
1373294732235,144.613
1373294792235,144.065
1373294852235,144.394
1373294912235,144.649
1373294972235,144.572
1373295032235,144.248
1373295092235,144.422
1373295152235,144.098
1373295212235,144.315
1373295272235,144.224
1373295332235,144.396
1373295392235,144.583
1373295452235,144.537
1373295512235,144.102
1373295572235,144.715
1373295632245,144.639
1373295692245,144.661
1373295752245,144.413
1373295812245,144.448
1373295872245,144.570
1373295932245,144.150
1373295992245,144.448
1373296052245,144.509
1373296112245,144.421
1373296172245,144.363
1373296232245,144.052
1373296292245,144.205
1373296352245,144.284
1373296412245,144.624
1373296472245,144.646
1373296532245,144.277
1373296592245,144.383
1373296652245,144.312
1373296712245,144.284
1373296772245,144.656
1373296832245,144.666
1373296892245,144.210
1373296952245,144.676
1373297012245,144.195
1373297072245,144.145
1373297132245,144.211
1373297192245,144.291
1373297252245,144.572
1373297312245,144.137
1373297372245,144.327
1373297432245,144.272
1373297492245,144.058
1373297552245,144.389
1373297612245,144.647
1373297672245,144.538
1373297732245,144.076
1373297792245,144.487
1373297852245,144.344
1373297912245,144.432
1373297972245,144.441
1373298032245,144.352
1373298092245,144.546
1373298152245,144.361
1373298212245,143.999
1373298272245,144.231
1373298332245,144.316
1373298392245,144.352
1373298452245,144.375
1373298512245,144.059
1373298572245,144.390
1373298632245,144.153
1373298692245,144.260
1373298752245,144.471
1373298812245,144.493
1373298872245,144.357
1373298932245,144.527
1373298992245,144.334
1373299052245,144.635
1373299112245,144.379
1373299172245,144.360
1373299232254,144.475
1373299292254,144.339
1373299352254,144.796
1373299412254,144.412
1373299472254,144.446
1373299532254,144.553
1373299592254,144.678
1373299652254,144.535
1373299712254,144.588
1373299772254,144.432
1373299832254,144.122
1373299892254,144.191
1373299952254,144.219
1373300012254,144.453
1373300072254,144.641
1373300132254,144.272
1373300192254,144.364
1373300252254,144.325
1373300312254,144.016
1373300372254,144.287
1373300432254,144.222
1373300492254,144.053
1373300552254,144.135
1373300612254,144.027
1373300672254,144.225
1373300732254,144.056
1373300792254,143.920
1373300852254,144.454
1373300912254,143.789
1373300972254,143.872
1373301032254,143.778
1373301092254,144.171
1373301152254,143.890
1373301212254,143.777
1373301272254,144.074
1373301332254,144.021
1373301392254,143.755
1373301452254,143.847
1373301512254,143.880
1373301572254,143.736
1373301632254,143.655
1373301692254,143.984
1373301752254,144.064
1373301812254,144.093
1373301872254,143.609
1373301932254,144.159
1373301992254,143.959
1373302052254,144.013
1373302112254,143.701
1373302172254,143.794
1373302232254,143.970
1373302292254,143.771
1373302352254,143.729
1373302412254,143.955
1373302472254,143.914
1373302532254,143.490
1373302592254,143.896
1373302652254,143.774
1373302712254,143.988
1373302772254,143.804
1373302832264,143.597
1373302892264,143.686
1373302952264,143.696
1373303012264,143.675
1373303072264,143.557
1373303132264,143.564
1373303192264,143.620
1373303252264,143.667
1373303312264,143.787
1373303372264,143.328
1373303432264,143.452
1373303492264,143.547
1373303552264,143.383
1373303612264,143.301
1373303672264,143.508
1373303732264,143.463
1373303792264,142.966
1373303852264,143.509
1373303912264,143.470
1373303972264,143.520
1373304032264,143.320
1373304092264,143.564
1373304152264,143.251
1373304212264,143.175
1373304272264,143.309
1373304332264,142.955
1373304392264,143.260
1373304452264,143.166
1373304512264,143.533
1373304572264,143.509
1373304632264,143.108
1373304692264,143.087
1373304752264,142.849
1373304812264,143.236
1373304872264,143.062
1373304932264,142.973
1373304992264,142.931
1373305052264,142.940
1373305112264,143.149
1373305172264,143.309
1373305232264,143.186
1373305292264,143.136
1373305352264,142.791
1373305412264,142.997
1373305472264,143.134
1373305532264,142.989
1373305592264,143.311
1373305652264,142.914
1373305712264,142.975
1373305772264,143.092
1373305832264,143.085
1373305892264,143.139
1373305952264,143.053
1373306012264,143.223
1373306072264,142.938
1373306132264,143.402
1373306192264,143.102
1373306252264,143.283
1373306312264,143.346
1373306372264,143.192
1373306432275,143.408
1373306492275,143.837
1373306552275,143.377
1373306612275,143.734
1373306672275,143.566
1373306732275,143.428
1373306792275,143.672
1373306852275,143.710
1373306912275,143.736
1373306972275,143.601
1373307032275,143.330
1373307092275,143.801
1373307152275,143.527
1373307212275,143.760
1373307272275,144.021
1373307332275,143.700
1373307392275,143.477
1373307452275,143.863